SCP
0 0 0 0 0 0 0 0 0 0 0 0 0 0 0 -0 -0 -0 -0 -0 0 -0 -0 -0 -0 -0 -0 -0 -0 -0 -0 -0 0 0 0 0 0 0 0 0 1 1 1 0
0 0 0 0 0 0 0 0 0 0 0 0 0 0 -0 -0 -0 -0 0 -0 -0 0 -0 0 0 0 -0 -0 -0 -0 -0 0 0 0 0 0 1 1 1 1 1 1 1 0
0 0 0 0 0 0 0 0 0 0 0 0 0 0 -0 -0 -0 -0 -0 -0 0 0 0 0 0 0 -0 -0 0 -0 -0 0 0 0 0 0 0 0 0 0 0 0 0 0
0 0 0 0 0 0 0 0 0 0 0 0 0 0 -0 -0 -0 -0 -0 0 0 0 0 0 -0 -0 0 0 0 0 0 0 0 0 0 0 0 0 0 0 0 0 0 0
0 0 0 0 0 0 0 0 0 0 0 0 0 -0 -0 -0 -0 -0 -0 0 0 0 -0 0 0 0 0 0 0 0 0 0 0 0 0 0 0 0 0 0 0 0 0 0
0 0 0 0 0 0 0 0 0 0 0 0 0 -0 -0 -0 -0 -0 -0 0 0 0 0 0 0 0 0 0 0 0 0 0 0 0 0 0 0 0 0 0 0 0 0 0
0 0 0 0 0 0 0 0 0 0 0 0 0 0 0 -0 -0 -0 -1 -0 0 0 0 0 0 0 0 0 0 0 0 0 0 0 0 0 0 0 0 0 0 0 0 0
0 0 0 0 0 0 0 0 0 0 0 0 0 0 -0 -0 -0 -1 -1 -1 -0 0 0 0 0 0 0 0 0 0 0 0 0 0 0 0 0 0 0 0 0 0 0 0
0 0 0 0 0 0 0 0 0 0 0 0 0 0 -0 -0 -0 -1 -1 -1 -0 0 0 0 0 -0 0 0 -0 0 0 0 0 0 0 0 0 0 0 0 0 0 0 0
0 0 0 0 0 0 0 0 0 0 0 0 0 0 -0 0 0 -0 -1 -1 -0 -0 -0 0 0 0 0 -0 0 0 0 0 0 0 0 0 0 0 0 0 0 0 0 0
0 0 0 0 0 0 0 0 0 0 0 0 0 0 0 0 0 0 -0 -0 -0 0 0 0 0 0 0 0 0 0 0 0 0 0 0 0 0 0 0 0 0 0 0 0
0 0 0 0 0 0 0 0 0 0 0 0 0 0 0 0 0 1 0 0 0 0 0 0 0 0 0 0 0 0 0 0 0 0 0 0 0 0 0 0 0 0 0 0
0 0 0 0 0 0 0 0 0 0 0 0 0 0 0 0 0 1 1 1 0 0 0 0 0 0 0 0 0 0 0 0 0 0 0 0 0 0 0 0 0 0 0 0
0 0 0 0 0 0 0 0 0 0 0 0 0 0 0 0 0 1 1 0 1 0 0 -0 0 0 0 0 0 0 0 0 0 0 0 0 0 0 0 0 0 0 0 0
0 0 0 0 0 -0 -0 -0 0 0 0 0 0 0 0 1 0 1 1 1 0 0 0 0 0 0 0 0 0 0 0 0 0 0 0 0 0 0 0 0 0 0 0 0
0 0 0 0 0 0 0 -0 -0 -0 -0 -0 0 0 0 0 0 1 1 0 0 0 0 0 0 0 0 0 -0 0 0 0 0 0 0 0 0 0 0 0 0 0 0 0
0 0 0 0 0 0 0 0 -0 -0 -0 -0 -0 0 -0 -1 0 0 0 0 0 0 0 0 0 0 -0 -0 0 0 0 0 0 0 0 0 0 0 0 0 0 0 0 0
0 0 0 0 0 0 0 0 0 -0 -0 -0 -0 -0 -0 -0 -0 0 0 0 0 0 0 0 0 0 0 -0 0 0 0 0 0 0 0 0 0 0 0 0 0 0 0 0
0 0 0 0 0 0 0 0 0 0 -0 -0 -0 -0 -0 -0 -0 0 0 0 0 0 0 0 0 0 0 0 0 0 0 0 0 0 0 0 0 0 0 0 0 0 0 0
0 0 0 0 0 0 0 0 0 0 0 0 0 -0 -0 -0 -0 0 0 0 0 0 0 0 0 0 0 0 0 0 0 0 0 0 0 0 0 0 0 0 0 0 0 0
0 0 0 0 0 0 0 0 0 0 0 0 0 0 0 0 -0 0 0 0 0 0 0 0 0 0 0 0 0 0 0 0 0 0 0 0 0 0 0 0 0 0 0 0
0 0 0 0 0 0 0 0 0 0 0 0 0 0 0 0 0 0 0 0 0 0 0 0 0 0 0 0 0 0 0 0 0 0 0 0 0 0 0 0 0 0 0 0
0 0 0 0 0 0 0 0 0 0 0 0 0 0 0 0 0 0 0 0 0 0 0 0 0 0 0 0 0 0 0 0 0 0 0 0 0 0 0 0 0 0 0 0
0 0 0 0 0 0 0 0 0 0 0 0 0 0 0 0 0 0 0 0 0 0 0 0 0 0 0 0 0 0 0 0 0 0 0 0 0 0 0 0 0 0 0 0
0 0 0 0 0 0 0 0 -0 -0 0 0 0 0 0 0 0 0 0 0 0 0 0 0 0 0 0 0 0 0 0 0 0 0 0 0 0 0 0 0 0 0 0 0
-0 0 0 0 0 0 -0 -0 0 0 0 0 0 0 0 0 0 0 0 0 0 0 0 0 0 0 0 0 0 0 0 0 0 0 0 0 0 0 0 0 0 0 0 0
0 0 0 -0 0 -0 -0 -0 -0 -0 0 0 0 0 0 0 0 0 0 0 0 0 0 0 0 0 0 0 0 0 0 0 0 0 0 0 0 0 0 0 0 0 0 0
Wind_Speed_500mb
8 6 6 4 8 16 14 4 11 3 12 7 27 30 30 32 30 33 31 28 36 40 39 38 37 41 47 45 37 37 33 34 33 31 30 31 28 24 23 23 23 23 30 37
5 4 1 9 12 9 11 6 15 5 13 7 10 32 35 35 34 34 33 35 36 36 34 36 40 40 44 47 45 38 33 27 26 25 23 21 19 14 13 13 12 12 16 19
11 3 9 11 22 21 9 11 12 15 12 15 16 32 44 39 34 35 40 41 42 40 42 45 47 48 49 46 42 38 34 30 24 20 16 13 11 9 10 10 10 13 20 18
6 9 20 4 4 8 14 10 20 10 10 12 8 25 39 41 38 37 47 46 44 46 48 48 48 48 46 42 35 31 25 21 18 15 13 12 10 9 12 13 13 15 16 16
6 15 4 8 3 4 4 7 22 12 15 6 11 27 24 44 46 53 54 51 51 49 52 56 53 45 37 32 27 20 18 20 17 14 12 11 8 9 10 11 10 9 9 7
6 8 21 8 4 7 7 10 30 26 20 4 20 15 15 60 58 54 57 57 57 53 51 45 42 36 30 27 22 20 21 17 15 14 13 9 5 6 6 8 9 10 7 5
12 13 7 5 25 8 14 2 28 24 25 21 14 9 18 59 62 62 64 62 58 52 50 44 42 35 31 26 23 22 19 15 13 14 14 16 18 18 14 10 8 7 5 7
6 12 21 23 4 8 9 14 23 31 35 31 34 30 7 47 64 72 72 71 63 58 52 46 44 40 34 29 26 23 18 16 16 16 22 26 20 18 17 17 19 23 22 22
6 4 10 20 27 16 13 14 23 32 41 43 38 25 25 42 63 76 78 74 67 62 60 52 47 37 34 32 23 19 17 18 21 23 26 24 20 21 23 23 23 24 20 18
4 12 11 15 20 24 20 26 28 33 38 46 46 19 28 38 57 66 81 82 77 71 64 58 49 43 32 26 21 19 21 25 26 24 26 25 23 22 22 23 21 18 15 13
7 3 10 24 24 30 28 26 30 33 35 39 43 35 21 35 52 63 76 82 84 79 69 61 55 50 37 26 21 22 27 30 30 30 30 28 24 25 22 19 19 18 17 18
8 2 7 14 25 28 27 33 32 36 45 43 41 44 25 32 46 60 71 78 84 82 75 59 55 47 35 26 22 26 35 37 36 34 31 28 26 28 23 21 18 17 22 26
15 8 16 26 26 21 31 35 36 36 36 44 46 44 48 31 42 56 68 76 88 89 78 63 57 48 37 30 30 35 36 36 33 30 32 35 30 28 33 28 19 20 23 25
32 26 25 27 26 30 39 42 42 39 37 37 42 49 50 33 40 58 77 84 86 90 81 68 61 50 40 37 40 38 33 29 27 30 37 38 35 33 29 22 18 17 18 20
47 48 40 29 32 32 37 41 48 44 36 37 36 40 34 31 46 55 67 74 82 90 80 75 65 54 46 44 43 40 33 29 34 40 44 41 37 31 25 20 14 13 12 12
34 33 28 27 31 32 40 38 41 47 39 42 38 37 36 33 38 46 65 74 84 97 91 79 65 53 48 49 48 41 33 35 40 43 43 36 29 25 22 17 11 7 3 1
25 28 27 30 29 35 38 39 43 48 43 47 46 36 35 25 32 43 54 68 81 83 77 66 59 51 51 50 47 44 43 45 40 39 38 30 27 26 22 15 11 5 2 4
39 31 28 21 18 21 30 34 39 32 36 37 32 25 26 31 36 43 51 72 80 71 62 54 47 48 53 51 45 44 49 49 42 39 35 32 29 27 23 16 11 7 6 6
36 31 29 28 27 27 29 31 32 26 34 30 26 22 29 31 32 38 51 68 76 72 53 36 38 47 50 47 47 47 49 47 44 40 37 34 32 27 20 13 9 7 8 7
32 34 34 29 27 25 26 27 27 23 17 16 10 15 24 33 40 39 54 80 91 70 64 31 39 44 46 48 46 45 48 49 49 44 40 35 28 21 16 12 9 5 7 10
32 29 26 23 21 22 18 18 23 24 28 15 7 9 18 29 39 53 81 90 76 83 86 50 48 52 52 51 44 46 50 48 44 40 38 34 30 23 15 10 8 3 8 12
37 33 29 24 20 20 23 14 6 3 12 32 16 7 8 26 39 56 85 97 99 90 94 71 61 60 57 51 45 47 48 46 40 38 38 32 24 18 12 8 7 4 5 12
42 40 31 23 20 18 14 28 25 7 6 16 31 18 12 30 41 67 85 94 91 87 80 66 64 60 54 52 48 52 50 46 41 37 30 27 21 16 13 7 9 10 10 13
51 51 41 28 19 12 9 10 23 26 18 12 20 33 30 18 34 44 78 82 76 72 64 63 63 57 55 54 47 49 46 41 37 33 28 22 25 22 17 14 16 16 18 20
70 61 47 37 25 12 10 15 12 17 24 25 22 28 37 38 24 42 64 75 72 67 64 58 51 49 53 49 45 43 39 31 28 34 34 30 26 21 19 18 20 25 26 27
70 69 59 48 22 14 13 17 12 15 33 30 32 30 37 46 48 32 56 69 69 59 52 51 45 47 50 46 44 40 33 30 22 27 30 30 25 24 25 30 34 35 32 31
52 49 44 43 24 31 20 18 8 22 29 27 24 43 34 45 61 59 62 74 72 64 52 40 36 42 50 46 44 38 28 28 23 25 29 29 27 30 34 39 42 41 36 33
Wind_Direction_500mb
238 230 211 185 202 193 202 257 247 351 229 199 201 182 173 159 157 158 165 172 179 188 191 196 209 222 224 223 207 188 193 206 217 227 235 235 231 238 244 247 256 268 280 287
200 80 157 260 234 235 217 201 248 269 274 218 159 165 168 171 167 159 165 167 179 188 195 179 166 156 152 156 160 166 176 185 196 202 206 224 232 245 264 269 271 280 286 287
209 161 136 256 235 215 207 206 224 210 243 166 167 180 177 173 172 160 157 162 168 168 163 160 160 156 152 149 152 161 170 176 181 187 197 218 240 255 267 264 269 290 294 299
231 180 229 281 32 269 229 287 230 311 325 206 212 173 174 179 167 160 158 160 161 157 154 154 153 151 148 150 152 157 160 170 184 200 218 227 232 250 255 264 274 278 281 284
242 226 309 155 31 68 13 70 25 309 335 43 137 147 181 184 174 166 164 160 157 156 152 152 151 148 146 144 151 163 185 190 194 202 206 216 235 249 256 266 269 265 269 288
169 243 230 154 160 357 146 181 12 0 351 5 166 202 193 181 176 166 164 163 159 156 157 153 152 153 157 160 169 178 188 190 188 191 195 189 184 191 152 124 120 114 95 64
193 233 234 21 316 301 189 55 352 354 349 336 236 17 338 176 172 172 171 169 165 167 159 163 163 164 167 164 170 181 184 180 174 162 147 129 131 127 116 111 107 100 75 64
178 217 225 357 169 312 24 14 2 1 356 328 294 281 279 181 179 174 176 176 173 169 168 175 174 172 167 170 174 174 167 164 150 134 125 118 115 109 101 95 99 95 90 84
295 53 70 53 71 33 7 355 352 355 351 342 319 293 228 198 187 183 184 181 179 178 176 177 178 177 175 169 168 166 165 156 146 139 131 123 118 107 106 102 97 94 88 77
237 162 352 117 53 22 6 0 355 351 350 351 352 317 224 204 190 189 185 184 182 183 183 180 180 178 184 171 171 170 164 158 153 152 150 141 130 117 114 106 100 92 75 58
285 215 342 195 343 349 340 341 344 345 349 348 356 357 247 214 198 193 190 184 186 185 186 184 181 178 177 179 173 166 165 166 165 165 164 155 145 131 123 112 103 85 65 71
271 215 259 282 324 336 335 332 332 335 337 340 348 345 307 230 211 198 194 186 185 187 187 188 183 178 180 179 178 173 172 173 174 170 164 162 155 145 133 121 99 70 77 79
251 254 272 288 300 313 322 329 328 321 320 322 332 334 333 242 220 204 198 196 192 191 192 192 187 183 182 179 171 171 176 176 177 176 171 165 159 160 150 132 105 80 80 78
247 278 274 270 278 299 308 312 315 315 311 309 315 322 330 246 226 216 204 204 197 196 191 190 187 183 180 175 169 170 173 173 171 169 164 159 156 154 147 135 112 95 88 77
249 256 259 261 278 292 301 307 303 303 308 304 309 317 315 262 228 227 211 204 200 195 189 185 185 179 177 171 171 170 168 164 155 149 149 152 153 153 149 139 116 104 86 67
240 237 232 259 275 286 294 295 299 301 302 300 303 310 308 302 238 225 217 207 196 190 187 183 178 177 175 172 167 163 160 160 154 152 153 155 156 161 158 143 121 121 118 339
233 240 247 246 255 269 278 283 292 298 294 296 297 305 300 275 221 217 215 205 192 189 183 180 174 177 174 172 168 162 160 159 159 155 154 158 157 155 153 145 133 103 29 310
251 248 249 242 238 271 288 289 285 291 290 291 291 285 252 239 229 215 205 198 187 179 177 182 181 177 172 167 169 166 163 161 157 153 153 156 154 152 148 141 126 78 34 358
228 232 237 238 244 258 270 281 284 283 286 284 281 264 233 220 215 211 205 198 177 167 165 180 193 179 172 169 169 166 163 161 156 152 151 151 151 151 149 143 133 69 38 28
222 226 226 233 247 257 265 268 277 252 290 283 281 246 212 207 205 201 198 180 167 168 174 193 198 185 182 173 171 166 161 158 155 157 156 154 153 157 162 165 157 101 48 46
203 202 207 221 234 249 270 270 262 259 241 248 224 236 212 192 192 192 178 166 166 166 166 181 202 191 191 179 171 166 161 157 159 162 161 160 161 162 170 183 198 211 24 26
206 207 216 223 230 238 231 240 234 321 331 243 229 139 199 192 186 185 181 168 175 181 175 181 206 195 194 184 175 171 166 164 164 165 167 169 171 172 175 194 211 259 319 6
212 213 213 210 224 231 237 223 219 240 22 312 211 203 156 183 186 178 174 177 174 176 174 169 193 188 191 191 183 177 173 174 174 175 182 189 192 199 213 247 265 262 291 308
221 212 214 214 223 248 254 241 238 234 255 305 255 202 191 163 181 187 182 169 172 171 167 166 173 182 187 189 187 181 183 186 189 196 204 211 221 230 246 270 283 280 275 287
233 221 216 212 217 221 284 292 263 215 240 290 293 224 199 199 186 166 171 165 168 167 159 162 160 178 183 186 189 186 194 198 209 216 217 224 230 235 246 270 295 281 272 274
234 221 214 213 204 225 277 298 254 265 278 297 299 214 197 196 195 180 174 168 165 164 161 158 163 185 190 190 188 186 191 191 201 200 213 224 237 250 267 280 288 291 277 273
210 206 207 212 205 241 270 310 290 248 275 286 256 187 187 179 181 175 172 162 160 160 161 160 180 193 196 191 192 196 203 206 214 212 228 237 254 267 279 287 292 288 274 268
Wind_Speed_850mb
8 6 6 4 8 16 14 4 11 3 12 7 27 30 30 32 30 33 31 28 36 40 39 38 37 41 47 45 37 37 33 34 33 31 30 31 28 24 23 23 23 23 30 37
5 4 1 9 12 9 11 6 15 5 13 7 10 32 35 35 34 34 33 35 36 36 34 36 40 40 44 47 45 38 33 27 26 25 23 21 19 14 13 13 12 12 16 19
11 3 9 11 22 21 9 11 12 15 12 15 16 32 44 39 34 35 40 41 42 40 42 45 47 48 49 46 42 38 34 30 24 20 16 13 11 9 10 10 10 13 20 18
6 9 20 4 4 8 14 10 20 10 10 12 8 25 39 41 38 37 47 46 44 46 48 48 48 48 46 42 35 31 25 21 18 15 13 12 10 9 12 13 13 15 16 16
6 15 4 8 3 4 4 7 22 12 15 6 11 27 24 44 46 53 54 51 51 49 52 56 53 45 37 32 27 20 18 20 17 14 12 11 8 9 10 11 10 9 9 7
6 8 21 8 4 7 7 10 30 26 20 4 20 15 15 60 58 54 57 57 57 53 51 45 42 36 30 27 22 20 21 17 15 14 13 9 5 6 6 8 9 10 7 5
12 13 7 5 25 8 14 2 28 24 25 21 14 9 18 59 62 62 64 62 58 52 50 44 42 35 31 26 23 22 19 15 13 14 14 16 18 18 14 10 8 7 5 7
6 12 21 23 4 8 9 14 23 31 35 31 34 30 7 47 64 72 72 71 63 58 52 46 44 40 34 29 26 23 18 16 16 16 22 26 20 18 17 17 19 23 22 22
6 4 10 20 27 16 13 14 23 32 41 43 38 25 25 42 63 76 78 74 67 62 60 52 47 37 34 32 23 19 17 18 21 23 26 24 20 21 23 23 23 24 20 18
4 12 11 15 20 24 20 26 28 33 38 46 46 19 28 38 57 66 81 82 77 71 64 58 49 43 32 26 21 19 21 25 26 24 26 25 23 22 22 23 21 18 15 13
7 3 10 24 24 30 28 26 30 33 35 39 43 35 21 35 52 63 76 82 84 79 69 61 55 50 37 26 21 22 27 30 30 30 30 28 24 25 22 19 19 18 17 18
8 2 7 14 25 28 27 33 32 36 45 43 41 44 25 32 46 60 71 78 84 82 75 59 55 47 35 26 22 26 35 37 36 34 31 28 26 28 23 21 18 17 22 26
15 8 16 26 26 21 31 35 36 36 36 44 46 44 48 31 42 56 68 76 88 89 78 63 57 48 37 30 30 35 36 36 33 30 32 35 30 28 33 28 19 20 23 25
32 26 25 27 26 30 39 42 42 39 37 37 42 49 50 33 40 58 77 84 86 90 81 68 61 50 40 37 40 38 33 29 27 30 37 38 35 33 29 22 18 17 18 20
47 48 40 29 32 32 37 41 48 44 36 37 36 40 34 31 46 55 67 74 82 90 80 75 65 54 46 44 43 40 33 29 34 40 44 41 37 31 25 20 14 13 12 12
34 33 28 27 31 32 40 38 41 47 39 42 38 37 36 33 38 46 65 74 84 97 91 79 65 53 48 49 48 41 33 35 40 43 43 36 29 25 22 17 11 7 3 1
25 28 27 30 29 35 38 39 43 48 43 47 46 36 35 25 32 43 54 68 81 83 77 66 59 51 51 50 47 44 43 45 40 39 38 30 27 26 22 15 11 5 2 4
39 31 28 21 18 21 30 34 39 32 36 37 32 25 26 31 36 43 51 72 80 71 62 54 47 48 53 51 45 44 49 49 42 39 35 32 29 27 23 16 11 7 6 6
36 31 29 28 27 27 29 31 32 26 34 30 26 22 29 31 32 38 51 68 76 72 53 36 38 47 50 47 47 47 49 47 44 40 37 34 32 27 20 13 9 7 8 7
32 34 34 29 27 25 26 27 27 23 17 16 10 15 24 33 40 39 54 80 91 70 64 31 39 44 46 48 46 45 48 49 49 44 40 35 28 21 16 12 9 5 7 10
32 29 26 23 21 22 18 18 23 24 28 15 7 9 18 29 39 53 81 90 76 83 86 50 48 52 52 51 44 46 50 48 44 40 38 34 30 23 15 10 8 3 8 12
37 33 29 24 20 20 23 14 6 3 12 32 16 7 8 26 39 56 85 97 99 90 94 71 61 60 57 51 45 47 48 46 40 38 38 32 24 18 12 8 7 4 5 12
42 40 31 23 20 18 14 28 25 7 6 16 31 18 12 30 41 67 85 94 91 87 80 66 64 60 54 52 48 52 50 46 41 37 30 27 21 16 13 7 9 10 10 13
51 51 41 28 19 12 9 10 23 26 18 12 20 33 30 18 34 44 78 82 76 72 64 63 63 57 55 54 47 49 46 41 37 33 28 22 25 22 17 14 16 16 18 20
70 61 47 37 25 12 10 15 12 17 24 25 22 28 37 38 24 42 64 75 72 67 64 58 51 49 53 49 45 43 39 31 28 34 34 30 26 21 19 18 20 25 26 27
70 69 59 48 22 14 13 17 12 15 33 30 32 30 37 46 48 32 56 69 69 59 52 51 45 47 50 46 44 40 33 30 22 27 30 30 25 24 25 30 34 35 32 31
52 49 44 43 24 31 20 18 8 22 29 27 24 43 34 45 61 59 62 74 72 64 52 40 36 42 50 46 44 38 28 28 23 25 29 29 27 30 34 39 42 41 36 33
Wind_Direction_850mb
238 230 211 185 202 193 202 257 247 351 229 199 201 182 173 159 157 158 165 172 179 188 191 196 209 222 224 223 207 188 193 206 217 227 235 235 231 238 244 247 256 268 280 287
200 80 157 260 234 235 217 201 248 269 274 218 159 165 168 171 167 159 165 167 179 188 195 179 166 156 152 156 160 166 176 185 196 202 206 224 232 245 264 269 271 280 286 287
209 161 136 256 235 215 207 206 224 210 243 166 167 180 177 173 172 160 157 162 168 168 163 160 160 156 152 149 152 161 170 176 181 187 197 218 240 255 267 264 269 290 294 299
231 180 229 281 32 269 229 287 230 311 325 206 212 173 174 179 167 160 158 160 161 157 154 154 153 151 148 150 152 157 160 170 184 200 218 227 232 250 255 264 274 278 281 284
242 226 309 155 31 68 13 70 25 309 335 43 137 147 181 184 174 166 164 160 157 156 152 152 151 148 146 144 151 163 185 190 194 202 206 216 235 249 256 266 269 265 269 288
169 243 230 154 160 357 146 181 12 0 351 5 166 202 193 181 176 166 164 163 159 156 157 153 152 153 157 160 169 178 188 190 188 191 195 189 184 191 152 124 120 114 95 64
193 233 234 21 316 301 189 55 352 354 349 336 236 17 338 176 172 172 171 169 165 167 159 163 163 164 167 164 170 181 184 180 174 162 147 129 131 127 116 111 107 100 75 64
178 217 225 357 169 312 24 14 2 1 356 328 294 281 279 181 179 174 176 176 173 169 168 175 174 172 167 170 174 174 167 164 150 134 125 118 115 109 101 95 99 95 90 84
295 53 70 53 71 33 7 355 352 355 351 342 319 293 228 198 187 183 184 181 179 178 176 177 178 177 175 169 168 166 165 156 146 139 131 123 118 107 106 102 97 94 88 77
237 162 352 117 53 22 6 0 355 351 350 351 352 317 224 204 190 189 185 184 182 183 183 180 180 178 184 171 171 170 164 158 153 152 150 141 130 117 114 106 100 92 75 58
285 215 342 195 343 349 340 341 344 345 349 348 356 357 247 214 198 193 190 184 186 185 186 184 181 178 177 179 173 166 165 166 165 165 164 155 145 131 123 112 103 85 65 71
271 215 259 282 324 336 335 332 332 335 337 340 348 345 307 230 211 198 194 186 185 187 187 188 183 178 180 179 178 173 172 173 174 170 164 162 155 145 133 121 99 70 77 79
251 254 272 288 300 313 322 329 328 321 320 322 332 334 333 242 220 204 198 196 192 191 192 192 187 183 182 179 171 171 176 176 177 176 171 165 159 160 150 132 105 80 80 78
247 278 274 270 278 299 308 312 315 315 311 309 315 322 330 246 226 216 204 204 197 196 191 190 187 183 180 175 169 170 173 173 171 169 164 159 156 154 147 135 112 95 88 77
249 256 259 261 278 292 301 307 303 303 308 304 309 317 315 262 228 227 211 204 200 195 189 185 185 179 177 171 171 170 168 164 155 149 149 152 153 153 149 139 116 104 86 67
240 237 232 259 275 286 294 295 299 301 302 300 303 310 308 302 238 225 217 207 196 190 187 183 178 177 175 172 167 163 160 160 154 152 153 155 156 161 158 143 121 121 118 339
233 240 247 246 255 269 278 283 292 298 294 296 297 305 300 275 221 217 215 205 192 189 183 180 174 177 174 172 168 162 160 159 159 155 154 158 157 155 153 145 133 103 29 310
251 248 249 242 238 271 288 289 285 291 290 291 291 285 252 239 229 215 205 198 187 179 177 182 181 177 172 167 169 166 163 161 157 153 153 156 154 152 148 141 126 78 34 358
228 232 237 238 244 258 270 281 284 283 286 284 281 264 233 220 215 211 205 198 177 167 165 180 193 179 172 169 169 166 163 161 156 152 151 151 151 151 149 143 133 69 38 28
222 226 226 233 247 257 265 268 277 252 290 283 281 246 212 207 205 201 198 180 167 168 174 193 198 185 182 173 171 166 161 158 155 157 156 154 153 157 162 165 157 101 48 46
203 202 207 221 234 249 270 270 262 259 241 248 224 236 212 192 192 192 178 166 166 166 166 181 202 191 191 179 171 166 161 157 159 162 161 160 161 162 170 183 198 211 24 26
206 207 216 223 230 238 231 240 234 321 331 243 229 139 199 192 186 185 181 168 175 181 175 181 206 195 194 184 175 171 166 164 164 165 167 169 171 172 175 194 211 259 319 6
212 213 213 210 224 231 237 223 219 240 22 312 211 203 156 183 186 178 174 177 174 176 174 169 193 188 191 191 183 177 173 174 174 175 182 189 192 199 213 247 265 262 291 308
221 212 214 214 223 248 254 241 238 234 255 305 255 202 191 163 181 187 182 169 172 171 167 166 173 182 187 189 187 181 183 186 189 196 204 211 221 230 246 270 283 280 275 287
233 221 216 212 217 221 284 292 263 215 240 290 293 224 199 199 186 166 171 165 168 167 159 162 160 178 183 186 189 186 194 198 209 216 217 224 230 235 246 270 295 281 272 274
234 221 214 213 204 225 277 298 254 265 278 297 299 214 197 196 195 180 174 168 165 164 161 158 163 185 190 190 188 186 191 191 201 200 213 224 237 250 267 280 288 291 277 273
210 206 207 212 205 241 270 310 290 248 275 286 256 187 187 179 181 175 172 162 160 160 161 160 180 193 196 191 192 196 203 206 214 212 228 237 254 267 279 287 292 288 274 268